DEPCW EDLP-ZZZZ

Flight info

Callsign DEPCW
Flight time N/A
Altitude
Route VFR
Aircraft PA28A

Departure

Time 2026-04-29 14:00
Airport Paderborn Lippstadt Airport (EDLP)

Arrival

Time N/A
Airport ZZZZ
Time Latitude Longitude Altitude Speed Heading
2026-04-29 13:53 51.61122 8.61412 692 ft 10 kts 237°
2026-04-29 13:53 51.61084 8.61322 694 ft 9 kts 236°
2026-04-29 13:53 51.61051 8.61243 695 ft 8 kts 236°
2026-04-29 13:53 51.61022 8.61170 693 ft 7 kts 238°
2026-04-29 13:54 51.61000 8.61108 696 ft 14 kts 251°
2026-04-29 13:54 51.61038 8.61015 697 ft 0 kts 355°
2026-04-29 13:57 51.61084 8.61036 694 ft 12 kts 24°
2026-04-29 13:57 51.61163 8.61094 691 ft 13 kts 23°
2026-04-29 13:58 51.61207 8.61136 692 ft 0 kts 56°
2026-04-29 13:58 51.61208 8.61139 692 ft 5 kts 56°
2026-04-29 13:59 51.61335 8.61450 694 ft 59 kts 57°
2026-04-29 13:59 51.61622 8.62137 787 ft 81 kts 54°
2026-04-29 13:59 51.61945 8.62891 1015 ft 82 kts 56°
2026-04-29 13:59 51.62051 8.63780 1243 ft 85 kts 99°
2026-04-29 14:00 51.61930 8.64709 1439 ft 87 kts 100°
2026-04-29 14:00 51.61815 8.65704 1673 ft 92 kts 101°
2026-04-29 14:00 51.61674 8.66712 1905 ft 94 kts 108°
2026-04-29 14:00 51.61446 8.67690 2145 ft 97 kts 110°
2026-04-29 14:01 51.61191 8.68693 2370 ft 97 kts 114°
2026-04-29 14:01 51.60907 8.69698 2562 ft 101 kts 115°
2026-04-29 14:01 51.60610 8.70748 2748 ft 104 kts 114°
2026-04-29 14:01 51.60327 8.71813 2949 ft 105 kts 112°
2026-04-29 14:02 51.60068 8.72919 3066 ft 112 kts 110°
2026-04-29 14:02 51.59790 8.74185 3037 ft 124 kts 109°
2026-04-29 14:02 51.59505 8.75531 3014 ft 130 kts 110°
2026-04-29 14:02 51.59177 8.76923 2979 ft 133 kts 112°
2026-04-29 14:03 51.58828 8.78295 2996 ft 134 kts 114°
2026-04-29 14:03 51.58424 8.79621 3109 ft 124 kts 124°
2026-04-29 14:03 51.57896 8.80627 3307 ft 118 kts 133°
2026-04-29 14:03 51.57324 8.81668 3256 ft 127 kts 134°
2026-04-29 14:04 51.56597 8.82487 3289 ft 130 kts 156°
2026-04-29 14:04 51.55722 8.82791 3404 ft 126 kts 182°
2026-04-29 14:04 51.54939 8.82303 3533 ft 122 kts 219°
2026-04-29 14:04 51.54412 8.81220 3539 ft 125 kts 246°
2026-04-29 14:05 51.54232 8.79875 3580 ft 124 kts 265°
2026-04-29 14:05 51.54208 8.78472 3605 ft 129 kts 272°
2026-04-29 14:05 51.54103 8.77110 3726 ft 120 kts 258°
2026-04-29 14:05 51.53878 8.75835 3868 ft 120 kts 255°
2026-04-29 14:06 51.53681 8.74557 4009 ft 119 kts 258°
2026-04-29 14:06 51.53510 8.73200 3980 ft 125 kts 259°
2026-04-29 14:06 51.53361 8.71847 4116 ft 122 kts 261°
2026-04-29 14:06 51.53254 8.70499 4212 ft 122 kts 266°
2026-04-29 14:07 51.53262 8.69138 4262 ft 125 kts 272°
2026-04-29 14:07 51.53297 8.67762 4397 ft 121 kts 272°
2026-04-29 14:07 51.53384 8.66402 4479 ft 124 kts 280°
2026-04-29 14:07 51.53608 8.65056 4549 ft 125 kts 287°
2026-04-29 14:08 51.53896 8.63757 4672 ft 123 kts 290°
2026-04-29 14:08 51.54230 8.62487 4741 ft 125 kts 293°
2026-04-29 14:08 51.54591 8.61224 4829 ft 124 kts 296°
2026-04-29 14:08 51.54889 8.59925 4861 ft 124 kts 281°
2026-04-29 14:09 51.54954 8.58526 4847 ft 127 kts 269°
2026-04-29 14:09 51.54956 8.57119 4967 ft 122 kts 272°
2026-04-29 14:09 51.55061 8.55758 5010 ft 124 kts 280°
2026-04-29 14:09 51.55274 8.54405 4999 ft 126 kts 287°
2026-04-29 14:10 51.55393 8.53018 4872 ft 134 kts 260°
2026-04-29 14:10 51.55246 8.51596 4976 ft 124 kts 263°
2026-04-29 14:10 51.55174 8.50240 5027 ft 125 kts 266°
2026-04-29 14:10 51.55138 8.48830 5017 ft 126 kts 269°
2026-04-29 14:11 51.55142 8.47429 5046 ft 125 kts 271°
2026-04-29 14:11 51.55090 8.46023 4984 ft 129 kts 262°
2026-04-29 14:11 51.54986 8.44614 5051 ft 124 kts 264°
2026-04-29 14:11 51.54909 8.43240 5046 ft 125 kts 265°
2026-04-29 14:12 51.54888 8.41828 5038 ft 127 kts 274°
2026-04-29 14:12 51.55078 8.40454 5040 ft 127 kts 291°
2026-04-29 14:12 51.55360 8.39117 5040 ft 126 kts 287°
2026-04-29 14:12 51.55686 8.37814 5109 ft 126 kts 299°
2026-04-29 14:13 51.56025 8.36505 4892 ft 136 kts 285°
2026-04-29 14:13 51.56289 8.35058 4860 ft 133 kts 287°
2026-04-29 14:13 51.56326 8.33648 4173 ft 146 kts 256°
2026-04-29 14:13 51.56082 8.32217 4331 ft 130 kts 249°
2026-04-29 14:14 51.56135 8.32669 3819 ft 137 kts
2026-04-29 14:14 51.56339 8.31753 3886 ft 103 kts 267°
2026-04-29 14:14 51.56200 8.30513 3837 ft 119 kts 257°
2026-04-29 14:14 51.56037 8.29202 3896 ft 120 kts 261°
2026-04-29 14:15 51.56021 8.27826 3875 ft 125 kts 275°
2026-04-29 14:15 51.56132 8.26437 4033 ft 123 kts 282°
2026-04-29 14:15 51.56060 8.25061 3880 ft 133 kts 262°
2026-04-29 14:15 51.55874 8.23635 3901 ft 128 kts 252°
2026-04-29 14:16 51.55603 8.22283 3937 ft 127 kts 252°
2026-04-29 14:16 51.55334 8.20940 3991 ft 125 kts 253°
2026-04-29 14:16 51.55077 8.19595 4006 ft 128 kts 254°
2026-04-29 14:16 51.54826 8.18213 3993 ft 130 kts 254°
2026-04-29 14:17 51.54581 8.16807 3959 ft 134 kts 255°
2026-04-29 14:17 51.54328 8.15364 3883 ft 135 kts 256°
2026-04-29 14:17 51.54098 8.13895 3778 ft 136 kts 255°
2026-04-29 14:17 51.53840 8.12494 3901 ft 125 kts 255°
2026-04-29 14:18 51.53622 8.11137 3961 ft 123 kts 255°
2026-04-29 14:18 51.53208 8.09928 4035 ft 125 kts 234°
2026-04-29 14:18 51.52977 8.09406 4088 ft 123 kts 234°
2026-04-29 14:18 51.52507 8.08249 3995 ft 135 kts 241°
2026-04-29 14:19 51.52247 8.06860 4141 ft 123 kts 261°
2026-04-29 14:19 51.52150 8.05478 4191 ft 127 kts 266°
2026-04-29 14:19 51.52086 8.04037 4155 ft 131 kts 260°
2026-04-29 14:19 51.51830 8.02587 3972 ft 138 kts 253°
2026-04-29 14:20 51.51538 8.01118 3839 ft 139 kts 251°
2026-04-29 14:20 51.51222 7.99639 3763 ft 138 kts 251°
2026-04-29 14:20 51.50897 7.98199 3643 ft 134 kts 250°
2026-04-29 14:20 51.50602 7.96945 3364 ft 111 kts 249°
2026-04-29 14:21 51.50353 7.95786 2955 ft 110 kts 253°
2026-04-29 14:21 51.50140 7.94655 2638 ft 106 kts 254°
2026-04-29 14:21 51.49966 7.93504 2381 ft 106 kts 257°
2026-04-29 14:21 51.49811 7.92313 2110 ft 108 kts 258°
2026-04-29 14:22 51.49665 7.91174 1939 ft 102 kts 259°